PP5EO-1 Weather Reports


time (UTC)temp
F
wind
direction
speed
knots
gust
knots
rain 1hr
in
rain 24hr
in
rain mn
in
humidity
%
barometer
mb
20260507210354 76 0.0 0.0 0.00 0.00 0.00 85 1006.9
20260507205400 76 0.0 0.0 0.00 0.00 0.00 83 1006.8
20260507202414 78 0.0 0.0 0.00 0.00 0.00 79 1006.7
20260507201419 79 0.0 0.0 0.00 0.00 0.00 76 1006.6
20260507200425 80 0.0 0.0 0.00 0.00 0.00 74 1006.5
20260507193439 80 0.0 0.0 0.00 0.00 0.00 74 1006.8
20260507192508 81 0.0 0.0 0.00 0.00 0.00 72 1006.8
20260507191450 82 0.0 0.0 0.00 0.00 0.00 69 1006.8
20260507185501 83 0.0 0.0 0.00 0.00 0.00 67 1007.0
20260507184505 83 0.0 0.0 0.00 0.00 0.00 66 1007.0
20260507183509 85 0.0 0.0 0.00 0.00 0.00 61 1007.0
20260507182515 88 0.0 0.0 0.00 0.00 0.00 56 1007.2
20260507181520 87 0.0 0.0 0.00 0.00 0.00 59 1007.4
20260507180525 87 0.0 0.0 0.00 0.00 0.00 57 1007.5
20260507175529 86 0.0 0.0 0.00 0.00 0.00 59 1007.5
20260507174537 87 0.0 0.0 0.00 0.00 0.00 59 1007.6
20260507173454 87 0.0 0.0 0.00 0.00 0.00 57 1007.6
20260507172500 87 0.0 0.0 0.00 0.00 0.00 57 1007.8
20260507171505 86 0.0 0.0 0.00 0.00 0.00 59 1008.0
20260507170510 86 0.0 0.0 0.00 0.00 0.00 58 1008.2
20260507165514 86 0.0 0.0 0.00 0.00 0.00 58 1008.4
20260507164523 86 0.0 0.0 0.00 0.00 0.00 58 1008.6
20260507163525 87 0.0 0.0 0.00 0.00 0.00 57 1008.8
20260507162530 86 0.0 0.0 0.00 0.00 0.00 58 1009.0
20260507160450 87 0.0 0.0 0.00 0.00 0.00 56 1009.5
20260507155455 87 0.0 0.0 0.00 0.00 0.00 56 1009.8
20260507154521 87 0.0 0.0 0.00 0.00 0.00 56 1010.1
20260507153504 86 0.0 0.0 0.00 0.00 0.00 57 1010.4
20260507152510 82 0.0 0.0 0.00 0.00 0.00 64 1010.7
20260507151515 81 0.0 0.0 0.00 0.00 0.00 66 1011.1
20260507150522 80 0.0 0.0 0.00 0.00 0.00 69 1011.4
20260507145526 79 0.0 0.0 0.00 0.00 0.00 70 1011.6
20260507144530 81 0.0 0.0 0.00 0.00 0.00 68 1011.8
20260507142945 81 0.0 0.0 0.00 0.00 0.00 67 1012.2
20260507141950 80 0.0 0.0 0.00 0.00 0.00 69 1012.4
20260507140954 79 0.0 0.0 0.00 0.00 0.00 71 1012.6
20260507140000 78 0.0 0.0 0.00 0.00 0.00 74 1012.7
20260507135005 75 0.0 0.0 0.00 0.00 0.00 81 1012.9
20260507134010 75 0.0 0.0 0.00 0.00 0.00 80 1013.1
20260507133014 75 0.0 0.0 0.00 0.00 0.00 78 1013.2
20260507132020 76 0.0 0.0 0.00 0.00 0.00 76 1013.3
20260507131025 77 0.0 0.0 0.00 0.00 0.00 75 1013.3
20260507130031 77 0.0 0.0 0.00 0.00 0.00 76 1013.4
20260507124338 76 0.0 0.0 0.00 0.00 0.00 77 1013.6
20260507123344 75 0.0 0.0 0.00 0.00 0.00 79 1013.6
20260507122349 73 0.0 0.0 0.00 0.00 0.00 83 1013.6
20260507121354 73 0.0 0.0 0.00 0.00 0.00 84 1013.7
20260507120358 73 0.0 0.0 0.00 0.00 0.00 85 1013.7
20260507115403 73 0.0 0.0 0.00 0.00 0.00 86 1013.7
20260507114409 73 0.0 0.0 0.00 0.00 0.00 87 1013.5
20260507113414 73 0.0 0.0 0.00 0.00 0.00 87 1013.5
20260507112453 72 0.0 0.0 0.00 0.00 0.00 89 1013.6
20260507111423 72 0.0 0.0 0.00 0.00 0.00 91 1013.6
20260507110429 71 0.0 0.0 0.00 0.00 0.00 92 1013.6
20260507105434 71 0.0 0.0 0.00 0.00 0.00 94 1013.6
20260507104440 71 0.0 0.0 0.00 0.00 0.00 96 1013.5
20260507103444 70 0.0 0.0 0.00 0.00 0.00 96 1013.4
20260507102448 70 0.0 0.0 0.00 0.00 0.00 96 1013.4
20260507101454 70 0.0 0.0 0.00 0.00 0.00 96 1013.5
20260507100500 70 0.0 0.0 0.00 0.00 0.00 97 1013.4
20260507095504 70 0.0 0.0 0.00 0.00 0.00 99 1013.3
20260507094509 70 0.0 0.0 0.00 0.00 0.00 99 1013.3
20260507093514 70 0.0 0.0 0.00 0.00 0.00 99 1013.3
20260507092519 70 0.0 0.0 0.00 0.00 0.00 100 1013.1
20260507091524 70 0.0 0.0 0.00 0.00 0.00 100 1013.1
20260507090529 70 0.0 0.0 0.00 0.00 0.00 99 1013.0
20260507085020 70 0.0 0.0 0.00 0.00 0.00 99 1012.9
20260507084027 71 0.0 0.0 0.00 0.00 0.00 98 1012.8
20260507083029 71 0.0 0.0 0.00 0.00 0.00 98 1012.8
20260507081525 71 0.0 0.0 0.00 0.00 0.00 99 1012.7
20260507080529 71 0.0 0.0 0.00 0.00 0.00 100 1012.8
20260507074553 71 0.0 0.0 0.00 0.00 0.00 100 1013.0
20260507073558 72 0.0 0.0 0.00 0.00 0.00 100 1013.0
20260507072602 72 0.0 0.0 0.00 0.00 0.00 99 1013.1
20260507071608 73 0.0 0.0 0.00 0.00 0.00 97 1013.1
20260507055036 72 0.0 0.0 0.00 0.00 0.00 100 1014.0
20260507054041 72 0.0 0.0 0.00 0.00 0.00 100 1014.2
20260507053048 72 0.0 0.0 0.00 0.00 0.00 100 1014.3
20260507052051 72 0.0 0.0 0.00 0.00 0.00 100 1014.5
20260507051056 72 0.0 0.0 0.00 0.00 0.00 100 1014.6
20260507045106 72 0.0 0.0 0.00 0.00 0.00 100 1014.9
20260507044111 72 0.0 0.0 0.00 0.00 0.00 100 1014.9
20260507043117 72 0.0 0.0 0.00 0.00 0.00 100 1014.9
20260507042121 72 0.0 0.0 0.00 0.00 0.00 100 1015.0
20260507041126 72 0.0 0.0 0.00 0.00 0.00 100 1015.0
20260507040140 72 0.0 0.0 0.00 0.00 0.00 100 1015.1
20260507035136 72 0.0 0.0 0.00 0.00 0.00 100 1015.2
20260507034141 72 0.0 0.0 0.00 0.00 0.00 100 1015.2
20260507033146 72 0.0 0.0 0.00 0.00 0.00 100 1015.2
20260507032151 72 0.0 0.0 0.00 0.00 0.00 100 1015.2
20260507031157 72 0.0 0.0 0.00 0.00 0.00 100 1015.3
20260507030201 72 0.0 0.0 0.00 0.00 0.00 100 1015.4
20260507025206 72 0.0 0.0 0.00 0.00 0.00 100 1015.5
20260507024211 72 0.0 0.0 0.00 0.00 0.00 100 1015.7
20260507023216 72 0.0 0.0 0.00 0.00 0.00 100 1015.7
20260507022222 72 0.0 0.0 0.00 0.00 0.00 100 1015.7
20260507020232 72 0.0 0.0 0.00 0.00 0.00 100 1015.9
20260507015238 72 0.0 0.0 0.00 0.00 0.00 100 1015.9
20260507014243 72 0.0 0.0 0.00 0.00 0.00 100 1015.9
20260507013246 72 0.0 0.0 0.00 0.00 0.00 100 1015.9
20260507012251 72 0.0 0.0 0.00 0.00 0.00 100 1015.9
20260507011256 72 0.0 0.0 0.00 0.00 0.00 100 1016.0
20260507010301 72 0.0 0.0 0.00 0.00 0.00 100 1016.0
20260507005306 72 0.0 0.0 0.00 0.00 0.00 100 1016.1
20260507004312 72 0.0 0.0 0.00 0.00 0.00 100 1016.3
20260507003315 72 0.0 0.0 0.00 0.00 0.00 100 1016.4
20260507002330 72 0.0 0.0 0.00 0.00 0.00 100 1016.5
20260507001329 72 0.0 0.0 0.00 0.00 0.00 100 1016.5
20260507000331 73 0.0 0.0 0.00 0.00 0.00 99 1016.6
20260506235337 73 0.0 0.0 0.00 0.00 0.00 99 1016.6
20260506234341 73 0.0 0.0 0.00 0.00 0.00 98 1016.5
20260506233346 73 0.0 0.0 0.00 0.00 0.00 97 1016.4
20260506232351 73 0.0 0.0 0.00 0.00 0.00 96 1016.2
20260506231356 73 0.0 0.0 0.00 0.00 0.00 96 1016.1
20260506230401 73 0.0 0.0 0.00 0.00 0.00 95 1016.0
20260506225406 74 0.0 0.0 0.00 0.00 0.00 95 1016.0
20260506224427 74 0.0 0.0 0.00 0.00 0.00 95 1015.9
20260506223418 74 0.0 0.0 0.00 0.00 0.00 95 1015.8
20260506222421 74 0.0 0.0 0.00 0.00 0.00 94 1015.8
20260506221428 74 0.0 0.0 0.00 0.00 0.00 94 1015.7
20260506220434 74 0.0 0.0 0.00 0.00 0.00 94 1015.7
20260506214441 73 0.0 0.0 0.00 0.00 0.00 95 1015.5
20260506213446 73 0.0 0.0 0.00 0.00 0.00 95 1015.5
20260506212451 73 0.0 0.0 0.00 0.00 0.00 95 1015.4
20260506211456 73 0.0 0.0 0.00 0.00 0.00 95 1015.4